Torna al catalogo

COSMOS 2143 DEB

AttivoPO
NORAD 57725·DEBRIS·🇷🇺 Russia

Lanciato May 16, 1991 da Plesetsk Cosmodrome

Loading…

Prossimi Passaggi (prossime 24 ore)

TLE

AggiornatoSource: Space-Track

Epoca: Sep 14, 2026, 00:37 UTC

1 57725U 91033N   26257.02578015  .00001227  00000-0  67032-2 0  9994
2 57725  82.8217 276.0671 0109608 197.8052 161.9186 12.61665653145307

Traccia COSMOS 2143 DEB in tempo reale con AllMySat

Download on the App Store